AAL3543 KAUS-KRNO

Flight info

Callsign AAL3543
Flight time N/A
Altitude FL360
Route MUCKY3 MUCKY JCT KH06Y FIGMO J86 ELP FAAST IZTIR CHILY LAS BTY KENNO SCOLA1
Aircraft E75L/M-SDE3GILORVW/S

Departure

Time 2026-03-20 23:35
Airport Austin Bergstrom International Airport (KAUS)

Arrival

Time N/A
Airport Reno Tahoe International Airport (KRNO)
Time Latitude Longitude Altitude Speed Heading
2026-03-20 23:12 30.20176 -97.66899 509 ft 0 kts 20°
2026-03-20 23:25 30.20172 -97.66901 509 ft 2 kts 20°
2026-03-20 23:26 30.20158 -97.66906 509 ft 2 kts 20°
2026-03-20 23:26 30.20143 -97.66912 509 ft 2 kts 19°
2026-03-20 23:26 30.20130 -97.66920 509 ft 2 kts 40°
2026-03-20 23:26 30.20120 -97.66933 509 ft 2 kts 57°
2026-03-20 23:27 30.20114 -97.66949 509 ft 2 kts 75°
2026-03-20 23:27 30.20112 -97.66960 509 ft 1 kts 86°
2026-03-20 23:27 30.20112 -97.66967 509 ft 0 kts 89°
2026-03-20 23:29 30.20112 -97.66963 509 ft 1 kts 89°
2026-03-20 23:29 30.20112 -97.66950 509 ft 2 kts 90°
2026-03-20 23:29 30.20110 -97.66931 509 ft 3 kts 108°
2026-03-20 23:30 30.20100 -97.66905 508 ft 4 kts 114°
2026-03-20 23:30 30.20084 -97.66857 508 ft 9 kts 108°
2026-03-20 23:30 30.20065 -97.66774 507 ft 12 kts 103°
2026-03-20 23:30 30.20020 -97.66698 506 ft 13 kts 156°
2026-03-20 23:31 30.19928 -97.66685 505 ft 14 kts 178°
2026-03-20 23:31 30.19839 -97.66649 504 ft 15 kts 116°
2026-03-20 23:31 30.19834 -97.66528 502 ft 16 kts 88°
2026-03-20 23:31 30.19837 -97.66398 501 ft 17 kts 89°
2026-03-20 23:32 30.19839 -97.66262 499 ft 18 kts 90°
2026-03-20 23:32 30.19841 -97.66116 497 ft 19 kts 87°
2026-03-20 23:32 30.19846 -97.65969 495 ft 17 kts 85°
2026-03-20 23:32 30.19934 -97.65908 495 ft 16 kts
2026-03-20 23:33 30.20049 -97.65909 496 ft 17 kts 359°
2026-03-20 23:33 30.20164 -97.65910 497 ft 16 kts 359°
2026-03-20 23:33 30.20273 -97.65912 498 ft 14 kts 357°
2026-03-20 23:34 30.20328 -97.65795 497 ft 14 kts 165°
2026-03-20 23:34 30.20212 -97.65787 496 ft 29 kts 179°
2026-03-20 23:34 30.19799 -97.65776 493 ft 87 kts 178°
2026-03-20 23:35 30.18032 -97.65727 738 ft 145 kts 178°
2026-03-20 23:35 30.17111 -97.65666 1382 ft 131 kts 176°
2026-03-20 23:35 30.16147 -97.65603 1704 ft 141 kts 178°
2026-03-20 23:35 30.15214 -97.65544 2160 ft 138 kts 178°
2026-03-20 23:36 30.14255 -97.65483 2657 ft 141 kts 178°
2026-03-20 23:36 30.13272 -97.65415 3151 ft 145 kts 178°
2026-03-20 23:36 30.12268 -97.65340 3645 ft 147 kts 178°
2026-03-20 23:36 30.11252 -97.65258 4144 ft 148 kts 178°
2026-03-20 23:37 30.10232 -97.65173 4637 ft 149 kts 178°
2026-03-20 23:37 30.09207 -97.65127 5117 ft 146 kts 196°
2026-03-20 23:37 30.08414 -97.65771 5465 ft 149 kts 248°
2026-03-20 23:37 30.08400 -97.67037 5558 ft 177 kts 290°
2026-03-20 23:38 30.09123 -97.68176 6049 ft 180 kts 322°
2026-03-20 23:38 30.10255 -97.68707 6626 ft 178 kts 354°
2026-03-20 23:38 30.11442 -97.68468 7189 ft 178 kts 26°
2026-03-20 23:38 30.12587 -97.67962 7653 ft 178 kts 356°
2026-03-20 23:39 30.13705 -97.68478 8136 ft 179 kts 311°
2026-03-20 23:39 30.14142 -97.69802 8624 ft 187 kts 271°
2026-03-20 23:39 30.14115 -97.71290 9116 ft 187 kts 278°
2026-03-20 23:39 30.14278 -97.72867 9219 ft 211 kts 284°
2026-03-20 23:40 30.14615 -97.74608 9336 ft 235 kts 288°
2026-03-20 23:40 30.15094 -97.76505 9426 ft 260 kts 291°
2026-03-20 23:40 30.15692 -97.78582 9481 ft 286 kts 292°
2026-03-20 23:40 30.16373 -97.80807 9848 ft 298 kts 292°
2026-03-20 23:41 30.17082 -97.83055 10450 ft 301 kts 293°
2026-03-20 23:41 30.17804 -97.85317 11033 ft 304 kts 294°
2026-03-20 23:41 30.18546 -97.87623 11505 ft 312 kts 294°
2026-03-20 23:41 30.19309 -97.89990 11925 ft 321 kts 294°
2026-03-20 23:42 30.20095 -97.92428 12334 ft 329 kts 294°
2026-03-20 23:42 30.20898 -97.94920 12826 ft 335 kts 294°
2026-03-20 23:42 30.21717 -97.97464 13366 ft 338 kts 295°
2026-03-20 23:42 30.22533 -98.00001 13946 ft 340 kts 295°
2026-03-20 23:43 30.23353 -98.02551 14553 ft 340 kts 295°
2026-03-20 23:43 30.24177 -98.05117 15130 ft 341 kts 295°
2026-03-20 23:43 30.25001 -98.07683 15708 ft 343 kts 295°
2026-03-20 23:43 30.25828 -98.10258 16241 ft 345 kts 296°
2026-03-20 23:44 30.26659 -98.12852 16755 ft 347 kts 296°
2026-03-20 23:44 30.27504 -98.15487 17227 ft 350 kts 296°
2026-03-20 23:44 30.28350 -98.18130 17732 ft 352 kts 296°
2026-03-20 23:44 30.29151 -98.20809 18196 ft 358 kts 290°
2026-03-20 23:45 30.29715 -98.23618 18642 ft 362 kts 288°
2026-03-20 23:45 30.30271 -98.26457 19077 ft 365 kts 288°
2026-03-20 23:45 30.30829 -98.29314 19532 ft 367 kts 288°
2026-03-20 23:45 30.31392 -98.32195 19938 ft 371 kts 288°
2026-03-20 23:46 30.31961 -98.35117 20393 ft 373 kts 288°
2026-03-20 23:46 30.32530 -98.38039 20822 ft 375 kts 288°
2026-03-20 23:46 30.33102 -98.40979 21230 ft 378 kts 288°
2026-03-20 23:46 30.33676 -98.43936 21623 ft 380 kts 287°
2026-03-20 23:47 30.34254 -98.46917 22005 ft 383 kts 287°
2026-03-20 23:47 30.34836 -98.49920 22370 ft 386 kts 287°
2026-03-20 23:47 30.35421 -98.52944 22758 ft 388 kts 287°
2026-03-20 23:47 30.36014 -98.56012 23113 ft 391 kts 287°
2026-03-20 23:48 30.36607 -98.59085 23479 ft 394 kts 287°
2026-03-20 23:48 30.37203 -98.62179 23837 ft 397 kts 287°
2026-03-20 23:48 30.37802 -98.65292 24185 ft 400 kts 287°
2026-03-20 23:48 30.38407 -98.68440 24530 ft 402 kts 287°
2026-03-20 23:49 30.39012 -98.71594 24900 ft 404 kts 286°
2026-03-20 23:49 30.39618 -98.74756 25264 ft 405 kts 286°
2026-03-20 23:49 30.40231 -98.77957 25589 ft 408 kts 286°
2026-03-20 23:49 30.40843 -98.81158 25916 ft 410 kts 286°
2026-03-20 23:50 30.41456 -98.84371 26232 ft 412 kts 286°
2026-03-20 23:50 30.42075 -98.87610 26537 ft 415 kts 286°
2026-03-20 23:50 30.42700 -98.90859 26865 ft 416 kts 286°
2026-03-20 23:50 30.43325 -98.94120 27188 ft 418 kts 286°
2026-03-20 23:51 30.43953 -98.97398 27475 ft 420 kts 286°
2026-03-20 23:51 30.44589 -99.00722 27733 ft 423 kts 286°
2026-03-20 23:51 30.45223 -99.04041 28004 ft 426 kts 286°
2026-03-20 23:51 30.45860 -99.07380 28306 ft 427 kts 286°
2026-03-20 23:52 30.46498 -99.10730 28591 ft 429 kts 286°
2026-03-20 23:52 30.47138 -99.14093 28886 ft 431 kts 286°
2026-03-20 23:52 30.47780 -99.17471 29178 ft 432 kts 286°
2026-03-20 23:52 30.48423 -99.20860 29459 ft 434 kts 285°
2026-03-20 23:53 30.49072 -99.24290 29693 ft 436 kts 286°
2026-03-20 23:53 30.49720 -99.27721 29958 ft 438 kts 285°
2026-03-20 23:53 30.50369 -99.31157 30243 ft 439 kts 285°
2026-03-20 23:53 30.51018 -99.34597 30563 ft 439 kts 285°
2026-03-20 23:54 30.51665 -99.38039 30887 ft 439 kts 286°
2026-03-20 23:54 30.52313 -99.41486 31161 ft 440 kts 285°
2026-03-20 23:54 30.52962 -99.44944 31388 ft 442 kts 285°
2026-03-20 23:54 30.53617 -99.48443 31628 ft 444 kts 286°
2026-03-20 23:55 30.54270 -99.51929 31853 ft 445 kts 286°
2026-03-20 23:55 30.54921 -99.55418 32166 ft 445 kts 286°
2026-03-20 23:55 30.55569 -99.58894 32592 ft 442 kts 286°
2026-03-20 23:55 30.56211 -99.62339 33030 ft 438 kts 286°
2026-03-20 23:56 30.56848 -99.65769 33407 ft 435 kts 285°
2026-03-20 23:56 30.57483 -99.69191 33758 ft 434 kts 285°
2026-03-20 23:56 30.58119 -99.72621 34087 ft 433 kts 285°
2026-03-20 23:56 30.58748 -99.76022 34401 ft 433 kts 285°
2026-03-20 23:57 30.59375 -99.79413 34716 ft 432 kts 285°
2026-03-20 23:57 30.60006 -99.82800 35018 ft 431 kts 285°
2026-03-20 23:57 30.60659 -99.86171 35341 ft 430 kts 285°
2026-03-20 23:57 30.61309 -99.89538 35658 ft 429 kts 285°
2026-03-20 23:58 30.61955 -99.92892 36021 ft 426 kts 285°
2026-03-20 23:58 30.63258 -99.99673 36131 ft 436 kts 285°
2026-03-20 23:59 30.64582 -100.06581 36140 ft 446 kts 285°
2026-03-20 23:59 30.65930 -100.13646 36137 ft 453 kts 285°
2026-03-21 00:00 30.67062 -100.19590 36130 ft 453 kts 285°
2026-03-21 00:00 30.68637 -100.27890 36134 ft 455 kts 285°
2026-03-21 00:01 30.69986 -100.35021 36132 ft 454 kts 285°
2026-03-21 00:01 30.71331 -100.42151 36131 ft 453 kts 285°
2026-03-21 00:02 30.72675 -100.49299 36137 ft 454 kts 285°
2026-03-21 00:02 30.74005 -100.56404 36139 ft 451 kts 285°
2026-03-21 00:03 30.75331 -100.63499 36143 ft 452 kts 285°
2026-03-21 00:03 30.76663 -100.70656 36140 ft 451 kts 284°
2026-03-21 00:04 30.77979 -100.77747 36135 ft 452 kts 284°
2026-03-21 00:04 30.79291 -100.84843 36125 ft 451 kts 284°
2026-03-21 00:05 30.80599 -100.91935 36125 ft 451 kts 284°
2026-03-21 00:05 30.81911 -100.99070 36122 ft 452 kts 284°
2026-03-21 00:06 30.83214 -101.06187 36122 ft 451 kts 284°
2026-03-21 00:06 30.84510 -101.13285 36123 ft 451 kts 285°
2026-03-21 00:07 30.85811 -101.20435 36124 ft 453 kts 285°
2026-03-21 00:07 30.87104 -101.27560 36125 ft 452 kts 285°
2026-03-21 00:08 30.88391 -101.34679 36135 ft 452 kts 285°
2026-03-21 00:08 30.89676 -101.41811 36127 ft 453 kts 285°
2026-03-21 00:09 30.90961 -101.48967 36128 ft 451 kts 286°
2026-03-21 00:09 30.92238 -101.56098 36130 ft 453 kts 285°
2026-03-21 00:10 30.93511 -101.63234 36129 ft 451 kts 286°
2026-03-21 00:10 30.94789 -101.70420 36124 ft 453 kts 285°
2026-03-21 00:11 30.96057 -101.77574 36126 ft 452 kts 285°
2026-03-21 00:11 30.97317 -101.84706 36115 ft 452 kts 285°
2026-03-21 00:12 30.98574 -101.91849 36104 ft 452 kts 286°
2026-03-21 00:12 30.99831 -101.99017 36090 ft 452 kts 286°
2026-03-21 00:13 31.01164 -102.06156 36092 ft 453 kts 287°
2026-03-21 00:13 31.02505 -102.13284 36088 ft 451 kts 287°
2026-03-21 00:14 31.03841 -102.20407 36089 ft 450 kts 287°
2026-03-21 00:14 31.05169 -102.27513 36094 ft 450 kts 287°
2026-03-21 00:15 31.06493 -102.34616 36098 ft 451 kts 287°
2026-03-21 00:15 31.07813 -102.41727 36098 ft 450 kts 287°
2026-03-21 00:16 31.09133 -102.48860 36092 ft 451 kts 287°
2026-03-21 00:16 31.10450 -102.55996 36105 ft 451 kts 287°
2026-03-21 00:17 31.11761 -102.63126 36106 ft 451 kts 287°
2026-03-21 00:17 31.13078 -102.70312 36104 ft 452 kts 286°
2026-03-21 00:18 31.14377 -102.77424 36092 ft 450 kts 286°
2026-03-21 00:18 31.15671 -102.84529 36100 ft 450 kts 286°
2026-03-21 00:19 31.16960 -102.91634 36105 ft 449 kts 286°
2026-03-21 00:19 31.18251 -102.98768 36110 ft 449 kts 286°
2026-03-21 00:20 31.19532 -103.05878 36103 ft 450 kts 286°
2026-03-21 00:20 31.20811 -103.12992 36097 ft 449 kts 286°
2026-03-21 00:21 31.22088 -103.20128 36109 ft 449 kts 286°
2026-03-21 00:21 31.23358 -103.27237 36113 ft 449 kts 286°
2026-03-21 00:22 31.24624 -103.34358 36074 ft 449 kts 286°
2026-03-21 00:22 31.25886 -103.41476 36048 ft 449 kts 286°
2026-03-21 00:23 31.27149 -103.48625 36052 ft 451 kts 286°
2026-03-21 00:23 31.28403 -103.55747 36051 ft 450 kts 286°
2026-03-21 00:24 31.29653 -103.62866 36058 ft 450 kts 286°
2026-03-21 00:24 31.30909 -103.70049 36060 ft 451 kts 285°
2026-03-21 00:25 31.32151 -103.77176 36147 ft 449 kts 285°
2026-03-21 00:25 31.33388 -103.84298 36159 ft 449 kts 285°
2026-03-21 00:26 31.34621 -103.91422 36172 ft 449 kts 285°
2026-03-21 00:26 31.35855 -103.98572 36184 ft 449 kts 285°
2026-03-21 00:27 31.37079 -104.05696 36187 ft 448 kts 285°
2026-03-21 00:27 31.38299 -104.12816 36204 ft 449 kts 285°
2026-03-21 00:28 31.39519 -104.19964 36218 ft 449 kts 285°
2026-03-21 00:28 31.40731 -104.27088 36219 ft 449 kts 285°
2026-03-21 00:29 31.41938 -104.34210 36247 ft 449 kts 285°
2026-03-21 00:29 31.43142 -104.41337 36253 ft 449 kts 285°
2026-03-21 00:30 31.44345 -104.48484 36270 ft 449 kts 285°
2026-03-21 00:30 31.45541 -104.55617 36273 ft 448 kts 285°
2026-03-21 00:31 31.46734 -104.62750 36265 ft 449 kts 285°
2026-03-21 00:31 31.47929 -104.69930 36253 ft 449 kts 285°
2026-03-21 00:32 31.49115 -104.77077 36248 ft 448 kts 285°
2026-03-21 00:32 31.50296 -104.84221 36284 ft 449 kts 285°
2026-03-21 00:33 31.51473 -104.91368 36318 ft 449 kts 285°
2026-03-21 00:33 31.52650 -104.98541 36343 ft 448 kts 285°
2026-03-21 00:34 31.53817 -105.05675 36336 ft 448 kts 285°
2026-03-21 00:34 31.54983 -105.12828 36322 ft 449 kts 284°
2026-03-21 00:35 31.56148 -105.20008 36300 ft 448 kts 285°
2026-03-21 00:35 31.57304 -105.27156 36292 ft 447 kts 284°
2026-03-21 00:36 31.58456 -105.34301 36296 ft 448 kts 285°
2026-03-21 00:36 31.59805 -105.41372 36304 ft 443 kts 292°
2026-03-21 00:37 31.61635 -105.48272 36310 ft 444 kts 290°
2026-03-21 00:37 31.63390 -105.55187 36316 ft 443 kts 290°
2026-03-21 00:38 31.65134 -105.62093 36322 ft 443 kts 290°
2026-03-21 00:38 31.66890 -105.69068 36332 ft 444 kts 290°
2026-03-21 00:39 31.68627 -105.75987 36337 ft 444 kts 290°
2026-03-21 00:39 31.71222 -105.86353 36327 ft 441 kts 290°
2026-03-21 00:40 31.72952 -105.93283 36288 ft 443 kts 289°
2026-03-21 00:40 31.74670 -106.00187 36324 ft 442 kts 290°
2026-03-21 00:41 31.76392 -106.07123 36176 ft 443 kts 290°
2026-03-21 00:41 31.78107 -106.14045 36161 ft 442 kts 289°
2026-03-21 00:42 31.79821 -106.20985 36137 ft 441 kts 290°
2026-03-21 00:42 31.81522 -106.27889 36129 ft 441 kts 289°
2026-03-21 00:43 31.83260 -106.34806 36127 ft 442 kts 290°
2026-03-21 00:43 31.85003 -106.41753 36135 ft 442 kts 290°
2026-03-21 00:44 31.86731 -106.48660 36144 ft 441 kts 290°
2026-03-21 00:44 31.88453 -106.55558 36150 ft 440 kts 290°
2026-03-21 00:45 31.90171 -106.62460 36148 ft 440 kts 290°
2026-03-21 00:45 31.91901 -106.69427 36153 ft 440 kts 289°
2026-03-21 00:46 31.93608 -106.76318 36144 ft 440 kts 289°
2026-03-21 00:46 31.95313 -106.83218 36152 ft 440 kts 289°
2026-03-21 00:47 31.97020 -106.90146 36173 ft 440 kts 289°
2026-03-21 00:47 31.98719 -106.97055 36257 ft 441 kts 289°
2026-03-21 00:48 32.00412 -107.03961 36257 ft 440 kts 289°
2026-03-21 00:48 32.02100 -107.10864 36261 ft 440 kts 289°
2026-03-21 00:49 32.03791 -107.17800 36265 ft 440 kts 289°
2026-03-21 00:49 32.05467 -107.24687 36276 ft 439 kts 289°
2026-03-21 00:50 32.07139 -107.31579 36269 ft 441 kts 289°
2026-03-21 00:50 32.08819 -107.38522 36278 ft 439 kts 289°
2026-03-21 00:51 32.10492 -107.45450 36271 ft 440 kts 289°
2026-03-21 00:51 32.12162 -107.52388 36292 ft 438 kts 289°
2026-03-21 00:52 32.13817 -107.59284 36197 ft 439 kts 289°
2026-03-21 00:52 32.15478 -107.66218 36151 ft 439 kts 288°
2026-03-21 00:53 32.17135 -107.73157 36156 ft 438 kts 288°
2026-03-21 00:53 32.18778 -107.80050 36161 ft 437 kts 288°
2026-03-21 00:54 32.20421 -107.86967 36168 ft 439 kts 288°
2026-03-21 00:54 32.22052 -107.93849 36311 ft 436 kts 288°
2026-03-21 00:55 32.23684 -108.00757 36310 ft 440 kts 288°
2026-03-21 00:55 32.25317 -108.07683 36329 ft 439 kts 288°
2026-03-21 00:56 32.26948 -108.14623 36357 ft 436 kts 288°
2026-03-21 00:56 32.29448 -108.21048 36345 ft 434 kts 304°
2026-03-21 00:57 32.32586 -108.27080 36387 ft 432 kts 303°
2026-03-21 00:57 32.35693 -108.33131 36413 ft 431 kts 303°
2026-03-21 00:58 32.38794 -108.39183 36426 ft 431 kts 303°
2026-03-21 00:58 32.41897 -108.45250 36268 ft 432 kts 302°
2026-03-21 00:59 32.43436 -108.48264 36381 ft 431 kts 303°
2026-03-21 00:59 32.44972 -108.51273 36364 ft 428 kts 303°
2026-03-21 00:59 32.48073 -108.57355 36373 ft 432 kts 302°
2026-03-21 01:00 32.49603 -108.60361 36588 ft 427 kts 302°
2026-03-21 01:00 32.51129 -108.63361 36816 ft 427 kts 302°
2026-03-21 01:00 32.52654 -108.66361 37107 ft 426 kts 302°
2026-03-21 01:00 32.54176 -108.69356 37424 ft 425 kts 302°
2026-03-21 01:01 32.55687 -108.72334 37751 ft 423 kts 302°
2026-03-21 01:01 32.57205 -108.75327 38076 ft 422 kts 302°
2026-03-21 01:01 32.58708 -108.78294 38329 ft 422 kts 302°
2026-03-21 01:01 32.60220 -108.81281 38331 ft 425 kts 302°
2026-03-21 01:02 32.61706 -108.84218 38313 ft 408 kts 302°
2026-03-21 01:02 32.63153 -108.87080 38318 ft 407 kts 302°
2026-03-21 01:02 32.66089 -108.92895 38302 ft 419 kts 302°
2026-03-21 01:03 32.69113 -108.98893 38305 ft 429 kts 301°
2026-03-21 01:03 32.72178 -109.04984 38299 ft 432 kts 301°
2026-03-21 01:04 32.75238 -109.11074 38311 ft 430 kts 301°
2026-03-21 01:04 32.78301 -109.17179 38295 ft 431 kts 301°
2026-03-21 01:05 32.81356 -109.23280 38301 ft 429 kts 301°
2026-03-21 01:05 32.84403 -109.29375 38281 ft 433 kts 301°
2026-03-21 01:06 32.87462 -109.35504 38285 ft 432 kts 301°
2026-03-21 01:06 32.90515 -109.41629 38291 ft 430 kts 301°
2026-03-21 01:07 32.93553 -109.47737 38182 ft 431 kts 301°
2026-03-21 01:07 32.96587 -109.53845 38174 ft 431 kts 301°
2026-03-21 01:08 32.99630 -109.59983 38141 ft 431 kts 301°
2026-03-21 01:08 33.02670 -109.66124 38274 ft 432 kts 300°
2026-03-21 01:09 33.04195 -109.69209 38165 ft 433 kts 300°
2026-03-21 01:09 33.05715 -109.72288 38255 ft 432 kts 300°
2026-03-21 01:09 33.08757 -109.78453 38260 ft 432 kts 300°
2026-03-21 01:10 33.11801 -109.84635 38137 ft 427 kts 301°
2026-03-21 01:10 33.13290 -109.87661 37799 ft 424 kts 301°
2026-03-21 01:10 33.14773 -109.90679 37486 ft 423 kts 300°
2026-03-21 01:11 33.16253 -109.93693 37178 ft 423 kts 300°
2026-03-21 01:11 33.17734 -109.96712 36873 ft 424 kts 300°
2026-03-21 01:11 33.19215 -109.99733 36583 ft 424 kts 301°
2026-03-21 01:11 33.20705 -110.02774 36329 ft 423 kts 300°
2026-03-21 01:12 33.23700 -110.08896 36283 ft 433 kts 300°
2026-03-21 01:12 33.26720 -110.15079 36276 ft 432 kts 300°
2026-03-21 01:13 33.29235 -110.20237 36243 ft 432 kts 301°
2026-03-21 01:13 33.32248 -110.26425 36225 ft 431 kts 300°